TimeMST,TemperatureF,Dew PointF,Humidity,Sea Level PressureIn,VisibilityMPH,Wind Direction,Wind SpeedMPH,Gust SpeedMPH,PrecipitationIn,Events,Conditions,WindDirDegrees,DateUTC
12:15 AM,44.6,23.0,43,30.06,10.0,South,9.2,-,N/A,,Clear,180,2013-02-08 07:15:00
12:35 AM,44.6,23.0,43,30.06,10.0,SSE,8.1,-,N/A,,Clear,160,2013-02-08 07:35:00
12:55 AM,44.6,23.0,43,30.06,10.0,SSE,9.2,-,N/A,,Clear,150,2013-02-08 07:55:00
1:15 AM,44.6,23.0,43,30.06,10.0,SSE,10.4,-,N/A,,Clear,150,2013-02-08 08:15:00
1:35 AM,44.6,23.0,43,30.06,10.0,SSE,11.5,-,N/A,,Clear,150,2013-02-08 08:35:00
1:55 AM,44.6,23.0,43,30.06,10.0,SSE,11.5,-,N/A,,Clear,150,2013-02-08 08:55:00
2:35 AM,44.6,23.0,43,30.04,10.0,SSE,10.4,-,N/A,,Clear,150,2013-02-08 09:35:00
2:55 AM,42.8,23.0,46,30.03,10.0,SSE,10.4,-,N/A,,Clear,150,2013-02-08 09:55:00
3:15 AM,42.8,24.8,49,30.04,10.0,SSE,10.4,-,N/A,,Clear,160,2013-02-08 10:15:00
3:35 AM,42.8,24.8,49,30.04,10.0,SSE,10.4,-,N/A,,Clear,150,2013-02-08 10:35:00
3:55 AM,42.8,24.8,49,30.03,10.0,SSE,11.5,-,N/A,,Clear,150,2013-02-08 10:55:00
4:15 AM,42.8,24.8,49,30.02,10.0,SSE,11.5,-,N/A,,Clear,150,2013-02-08 11:15:00
4:35 AM,41.0,24.8,53,30.02,10.0,SSE,13.8,-,N/A,,Clear,150,2013-02-08 11:35:00
4:55 AM,41.0,24.8,53,30.02,10.0,SSE,12.7,-,N/A,,Clear,150,2013-02-08 11:55:00
5:15 AM,42.8,24.8,49,30.02,10.0,SSE,12.7,-,N/A,,Clear,150,2013-02-08 12:15:00
5:35 AM,42.8,24.8,49,30.02,10.0,SSE,12.7,-,N/A,,Clear,160,2013-02-08 12:35:00
5:55 AM,41.0,24.8,53,30.02,10.0,SSE,12.7,-,N/A,,Clear,150,2013-02-08 12:55:00
6:15 AM,41.0,24.8,53,30.02,10.0,SSE,11.5,-,N/A,,Clear,150,2013-02-08 13:15:00
6:35 AM,41.0,24.8,53,30.02,10.0,SSE,11.5,-,N/A,,Clear,150,2013-02-08 13:35:00
6:55 AM,42.8,23.0,46,30.01,10.0,SSE,12.7,-,N/A,,Clear,150,2013-02-08 13:55:00
7:15 AM,42.8,23.0,46,30.01,10.0,SSE,13.8,-,N/A,,Clear,150,2013-02-08 14:15:00
7:35 AM,42.8,23.0,46,30.01,10.0,SSE,12.7,-,N/A,,Clear,160,2013-02-08 14:35:00
7:55 AM,42.8,24.8,49,30.02,10.0,SSE,12.7,-,N/A,,Clear,150,2013-02-08 14:55:00
8:15 AM,42.8,24.8,49,30.02,10.0,SSE,13.8,-,N/A,,Clear,150,2013-02-08 15:15:00
8:35 AM,46.4,26.6,46,30.02,10.0,SE,16.1,19.6,N/A,,Clear,140,2013-02-08 15:35:00
8:55 AM,50.0,24.8,37,30.02,10.0,SE,20.7,28.8,N/A,,Clear,130,2013-02-08 15:55:00
9:15 AM,51.8,26.6,38,30.02,10.0,SE,20.7,27.6,N/A,,Clear,130,2013-02-08 16:15:00
9:35 AM,51.8,24.8,35,30.01,10.0,ESE,21.9,28.8,N/A,,Clear,120,2013-02-08 16:35:00
9:55 AM,53.6,26.6,35,30.01,10.0,ESE,23.0,28.8,N/A,,Clear,120,2013-02-08 16:55:00
10:15 AM,55.4,26.6,33,30.00,10.0,SE,23.0,29.9,N/A,,Clear,130,2013-02-08 17:15:00
10:35 AM,53.6,24.8,33,30.00,10.0,ESE,18.4,28.8,N/A,,Clear,120,2013-02-08 17:35:00
11:15 AM,55.4,26.6,33,29.99,10.0,SE,20.7,26.5,N/A,,Clear,140,2013-02-08 18:15:00
11:35 AM,59.0,26.6,29,29.98,10.0,SE,19.6,26.5,N/A,,Clear,130,2013-02-08 18:35:00
11:55 AM,59.0,26.6,29,29.97,10.0,SE,13.8,23.0,N/A,,Clear,130,2013-02-08 18:55:00
12:15 PM,62.6,26.6,26,29.95,10.0,ESE,15.0,23.0,N/A,,Clear,120,2013-02-08 19:15:00
12:35 PM,62.6,26.6,26,29.94,10.0,ESE,15.0,24.2,N/A,,Clear,120,2013-02-08 19:35:00
12:55 PM,64.4,24.8,22,29.92,10.0,SSE,9.2,18.4,N/A,,Clear,150,2013-02-08 19:55:00
1:15 PM,64.4,24.8,22,29.90,10.0,East,13.8,20.7,N/A,,Clear,90,2013-02-08 20:15:00
1:35 PM,64.4,24.8,22,29.89,10.0,SSE,8.1,-,N/A,,Clear,150,2013-02-08 20:35:00
1:55 PM,68.0,14.0,12,29.88,10.0,SW,15.0,20.7,N/A,,Clear,220,2013-02-08 20:55:00
2:15 PM,66.2,12.2,12,29.87,10.0,SSW,9.2,18.4,N/A,,Clear,200,2013-02-08 21:15:00
2:35 PM,66.2,14.0,13,29.86,10.0,South,15.0,21.9,N/A,,Clear,190,2013-02-08 21:35:00
2:55 PM,66.2,14.0,13,29.86,10.0,SSW,11.5,-,N/A,,Clear,200,2013-02-08 21:55:00
3:15 PM,66.2,15.8,14,29.85,10.0,WSW,10.4,19.6,N/A,,Clear,240,2013-02-08 22:15:00
3:35 PM,66.2,14.0,13,29.85,10.0,SW,11.5,17.3,N/A,,Clear,220,2013-02-08 22:35:00
3:55 PM,66.2,14.0,13,29.84,10.0,West,12.7,-,N/A,,Clear,270,2013-02-08 22:55:00
4:35 PM,64.4,3.2,9,29.83,10.0,WSW,13.8,21.9,N/A,,Clear,250,2013-02-08 23:35:00
4:55 PM,64.4,5.0,10,29.83,10.0,West,15.0,19.6,N/A,,Clear,260,2013-02-08 23:55:00
5:15 PM,62.6,8.6,12,29.84,10.0,WSW,10.4,-,N/A,,Clear,240,2013-02-09 00:15:00
5:35 PM,62.6,8.6,12,29.84,10.0,SSW,12.7,-,N/A,,Clear,210,2013-02-09 00:35:00
5:55 PM,60.8,8.6,13,29.84,10.0,SW,10.4,-,N/A,,Clear,220,2013-02-09 00:55:00
6:15 PM,59.0,8.6,14,29.84,10.0,SSW,10.4,-,N/A,,Clear,210,2013-02-09 01:15:00
6:35 PM,57.2,10.4,16,29.84,10.0,SSW,6.9,-,N/A,,Clear,200,2013-02-09 01:35:00
6:55 PM,59.0,8.6,14,29.84,10.0,SSW,12.7,17.3,N/A,,Clear,200,2013-02-09 01:55:00
7:15 PM,59.0,12.2,16,29.84,10.0,SSW,12.7,20.7,N/A,,Clear,200,2013-02-09 02:15:00
7:35 PM,59.0,12.2,16,29.85,10.0,SSW,12.7,19.6,N/A,,Clear,210,2013-02-09 02:35:00
7:55 PM,59.0,10.4,15,29.85,10.0,SSW,11.5,16.1,N/A,,Clear,200,2013-02-09 02:55:00
8:15 PM,57.2,10.4,16,29.84,10.0,South,12.7,18.4,N/A,,Clear,190,2013-02-09 03:15:00
8:35 PM,57.2,8.6,14,29.84,10.0,South,17.3,21.9,N/A,,Clear,190,2013-02-09 03:35:00
8:55 PM,57.2,6.8,13,29.84,10.0,SSW,16.1,23.0,N/A,,Clear,200,2013-02-09 03:55:00
9:15 PM,55.4,8.6,15,29.83,10.0,SSW,16.1,21.9,N/A,,Clear,200,2013-02-09 04:15:00
9:35 PM,55.4,8.6,15,29.83,10.0,SSW,17.3,25.3,N/A,,Clear,200,2013-02-09 04:35:00
9:55 PM,55.4,6.8,14,29.83,10.0,SSW,16.1,21.9,N/A,,Clear,200,2013-02-09 04:55:00
10:15 PM,55.4,6.8,14,29.83,10.0,SSW,16.1,19.6,N/A,,Clear,200,2013-02-09 05:15:00
10:35 PM,55.4,6.8,14,29.83,10.0,SSW,17.3,26.5,N/A,,Clear,200,2013-02-09 05:35:00
10:55 PM,53.6,10.4,18,29.82,10.0,SSW,11.5,23.0,N/A,,Clear,210,2013-02-09 05:55:00
11:15 PM,53.6,12.2,19,29.82,10.0,SSW,10.4,16.1,N/A,,Clear,210,2013-02-09 06:15:00
11:35 PM,53.6,14.0,21,29.81,10.0,SSW,9.2,-,N/A,,Clear,210,2013-02-09 06:35:00
11:55 PM,51.8,15.8,24,29.81,10.0,SSW,12.7,18.4,N/A,,Clear,200,2013-02-09 06:55:00